Location: *
(50.6089°N, 2.2719°E)
Time: 16:27:28
(UTC+00:00)

NOAA 11 - Pass Details

Date: 18 October 2019
Orbit: 833 x 850 km, 98.4° (Epoch: 19 November)

Event Time Altitude Azimuth Distance (km) Brightness Sun altitude
Rises 18:09:42 0° 152° (SSE) 3,385 7.1 -12.8°
Reaches altitude 10° 18:12:04 10° 149° (SSE) 2,452 6.3 -13.2°
Maximum altitude 18:17:26 62° 70° (ENE) 940 4.2 -14.0°
Drops below altitude 10° 18:22:48 10° 351° (N) 2,459 6.8 -14.9°
Sets 18:25:11 0° 348° (NNW) 3,396 7.5 -15.3°
